Location: Unspecified
(0.0000°N, 0.0000°E)
Time: 20:45:54
(UTC+00:00)

STARLINK-34659 - Visible Passes

Search period start: 10 November 2025 00:00
Search period end: 20 November 2025 00:00
Orbit: 446 x 448 km, 53.2° (Epoch: 08 November)

Date Brightness Start Highest point End Pass type
(mag) Time Alt. Az. Time Alt. Az. Time Alt. Az.
14 Nov 5.2 18:20:31 10° NE 18:21:29 11° NE 18:21:31 11° NE visible
15 Nov 4.3 19:15:51 10° NW 19:19:13 44° SW 19:21:26 19° S visible
16 Nov 3.2 18:36:19 10° NW 18:39:49 85° SW 18:43:20 10° SSE visible
19 Nov 6.2 04:58:09 10° S 05:00:50 20° SE 05:03:29 10° ENE visible
19 Nov 6.4 18:15:28 10° W 18:17:52 17° SW 18:20:16 10° SSW visible
